Regional Weather Roundup
Issued by NWS

Current Version | Previous Version | Text Only | Print | Product List | Glossary On
Versions: 1 2 3 4 5 6 7 8 9 10 11 12 13 14 15 16 17 18 19 20 21 22 23 24 25 26 27 28 29 30 31 32 33 34 35 36 37 38 39 40 41 42 43 44 45 46 47 48 49 50
000
ASUS44 KBMX 170110
RWRAL

ALABAMA REGIONAL WEATHER ROUNDUP
NATIONAL WEATHER SERVICE BIRMINGHAM AL
800 PM CDT THU AUG 16 2018

NOTE: "FAIR" INDICATES FEW OR NO CLOUDS BELOW 12,000 FEET
WITH NO SIGNIFICANT WEATHER AND/OR OBSTRUCTIONS TO VISIBILITY.

THE REMARK "TC" DENOTES TEMPERATURE IN DEGREES CELSIUS.

ALZ001>011-014-016>018-020-170200-
NORTH ALABAMA

CITY           SKY/WX    TMP DP  RH WIND       PRES   REMARKS
MUSCLE SHOALS  FAIR      74  71  91 S8        30.09R
HUNTSVILLE     TSTM      73  73 100 E8        30.11R
DECATUR        LGT RAIN  71  70  96 MISG      30.09F
HALEYVILLE     MOCLDY    71  69  93 SE6       30.13R
GADSDEN        FAIR      80  77  90 CALM      30.11R
$$

ALZ012-013-022-023-030>036-040>044-170200-
WEST CENTRAL ALABAMA

CITY           SKY/WX    TMP DP  RH WIND       PRES   REMARKS
TUSCALOOSA     FAIR      82  70  66 SE6       30.10R
DEMOPOLIS      FAIR      78  72  81 SE3       30.09R
$$

ALZ015-024>026-033>036-041>044-170200-
CENTRAL ALABAMA

CITY           SKY/WX    TMP DP  RH WIND       PRES   REMARKS
BIRMINGHAM     MOCLDY    84  70  62 S10       30.13R
MONTGOMERY     FAIR      78  74  87 S3        30.14R
SHELBY CO ARPT FAIR      81  74  79 S7        30.13R
MAXWELL AFB    FAIR      79  73  83 S6        30.13R
GREENVILLE     FAIR      75  72  90 CALM      30.14R
SELMA          NOT AVBL
PRATTVILLE     FAIR      78  73  86 CALM      30.12R
BESSEMER       FAIR      81  74  79 S7        30.13R
TALLADEGA      FAIR      82  73  72 S7        30.13R
PELL CITY      CLEAR     82  75  78 S6        30.13R
MARION         FAIR      75  75 100 SE5       30.10R
SYLACAUGA      FAIR      81  75  83 CALM      30.13R
$$

ALZ019-021-028-029-037-038-045>048-170200-
EAST CENTRAL ALABAMA

CITY           SKY/WX    TMP DP  RH WIND       PRES   REMARKS
ANNISTON       FAIR      82  72  71 S3        30.13R
ALEXANDER CITY FAIR      79  77  93 S5        30.15R
AUBURN         MOCLDY    76  74  93 S8        30.18R
$$

ALZ051>064-170200-
SOUTHWEST ALABAMA

CITY           SKY/WX    TMP DP  RH WIND       PRES   REMARKS
MOBILE         MOCLDY    82  76  81 S3        30.13R
BROOKLEY FIELD FAIR      84  76  76 S5        30.13R HX  93
EVERGREEN      FAIR      76  73  91 S6        30.14R
$$

ALZ049-050-065>069-170200-
SOUTHEAST ALABAMA

CITY           SKY/WX    TMP DP  RH WIND       PRES   REMARKS
DOTHAN         FAIR      75  73  93 SE3       30.17F
OZARK          FAIR      75  74  96 E3        30.14S
TROY           FAIR      75  73  93 CALM      30.16R
EUFAULA        FAIR      76  74  93 CALM      30.14S
$$



USA.gov is the U.S. government's official web portal to all federal, state and local government web resources and services.